Location: Eymir
(36.7333°N, 29.7833°E)
Time: 15:03:59
(UTC+00:00)

SeaSat 1 - Visible Passes

Search period start: 11 April 2026 00:00
Search period end: 21 April 2026 00:00
Orbit: 736 x 740 km, 108.0° (Epoch: 11 April)

Date Brightness Start Highest point End Pass type
(mag) Time Alt. Az. Time Alt. Az. Time Alt. Az.
11 Apr 4.9 20:19:54 18° N 20:19:54 18° N 20:21:08 10° NNW visible
12 Apr 4.8 19:34:23 15° NNE 19:34:23 15° NNE 19:35:42 10° N visible
12 Apr 5.4 21:14:00 11° NNW 21:14:00 11° NNW 21:14:11 10° NNW visible
13 Apr 4.9 20:28:29 18° N 20:28:29 18° N 20:29:43 10° NNW visible
14 Apr 4.8 19:42:58 15° NNE 19:42:58 15° NNE 19:44:16 10° N visible
14 Apr 5.4 21:22:34 11° NNW 21:22:34 11° NNW 21:22:46 10° NNW visible
15 Apr 4.9 20:37:03 18° N 20:37:03 18° N 20:38:17 10° NNW visible
16 Apr 4.8 19:51:32 15° NNE 19:51:32 15° NNE 19:52:50 10° N visible
16 Apr 5.4 21:31:08 11° NNW 21:31:08 11° NNW 21:31:20 10° NNW visible
17 Apr 4.9 20:45:36 18° N 20:45:36 18° N 20:46:52 10° NNW visible
18 Apr 4.8 20:00:04 15° NNE 20:00:04 15° NNE 20:01:24 10° N visible
18 Apr 5.3 21:39:40 11° NNW 21:39:40 11° NNW 21:39:55 10° NNW visible
19 Apr 4.9 20:54:08 18° N 20:54:08 18° N 20:55:26 10° NNW visible
20 Apr 4.9 20:08:35 15° NNE 20:08:35 15° NNE 20:09:57 10° N visible
20 Apr 5.3 21:48:12 12° NNW 21:48:12 12° NNW 21:48:29 10° NNW visible
